Date String (YYYY-MM-DD hh:mm:ss) UTC,Instrument flags,absolute air pressure of the measurement (hPa),sample flow rate (lpm),inlet stack bypass flow (lpm),air temperature of the measurement (°C),ambient temperature measured by the external sensor (°C),aerosol sample conditioner tube jacket temperature (°C),OPC LED temperature (°C),internal box temperature (°C),relative humidity of the measurement (%),span deviation,mass concentration of particles derived from Lorenz-Mie calculation of OPC scattering (μg/m³),mass concentration of particles derived from Lorenz-Mie calculation of OPC scattering (μg/m³),mass concentration of particles derived from Lorenz-Mie calculation of OPC scattering (μg/m³)
DateTimeUTC,F1_M11,P_M11,Q1_M11,Q2_M11,T1_M11,T2_M11,T3_M11,T4_M11,T5_M11,U1_M11,ZSPAN_M11,X0_M11,X2_M11,X1_M11
2023-11-26 12:00:00,SystemResetWarning,0831.3,4.99,000.00,019.0,018.9,000.0,027.2,020.2,10.4,0000.0,0002.18,0001.78,0001.62
2023-11-26 12:01:00,SystemResetWarning,0831.3,4.99,000.00,018.9,018.7,000.0,027.2,020.0,10.5,0000.0,0002.15,0001.76,0001.61
2023-11-26 12:02:00,SystemResetWarning,0831.3,5.01,000.00,018.9,018.4,000.0,027.2,020.0,10.5,0000.0,0002.15,0001.76,0001.61
2023-11-26 12:03:00,SystemResetWarning,0831.3,5.00,000.00,018.8,018.2,000.0,027.3,020.0,10.6,0000.0,0002.14,0001.75,0001.61
2023-11-26 12:04:00,SystemResetWarning,0831.3,5.00,000.00,018.8,018.0,000.0,027.3,020.0,10.6,0000.0,0002.18,0001.73,0001.61
2023-11-26 12:05:00,SystemResetWarning,0831.3,5.00,000.00,018.8,017.9,000.0,027.3,020.0,10.6,0000.0,0002.37,0001.76,0001.61
2023-11-26 12:06:00,SystemResetWarning,0831.3,5.00,000.00,018.8,017.8,000.0,027.3,020.1,10.7,0000.0,0002.47,0001.76,0001.60
2023-11-26 12:07:00,SystemResetWarning,0831.3,5.01,000.00,018.9,018.2,000.0,027.2,020.4,10.8,0000.0,0002.52,0001.78,0001.59
2023-11-26 12:08:00,SystemResetWarning,0831.3,5.00,000.00,019.0,018.9,000.0,027.2,020.8,10.7,0000.0,0002.56,0001.79,0001.58
2023-11-26 12:09:00,SystemResetWarning,0831.3,4.98,000.00,019.0,018.9,000.0,027.2,020.3,10.7,0000.0,0002.57,0001.79,0001.58
2023-11-26 12:10:00,SystemResetWarning,0831.3,5.01,000.00,018.9,018.7,000.0,027.2,020.0,10.8,0000.0,0002.53,0001.77,0001.57
2023-11-26 12:11:00,SystemResetWarning,0831.3,5.01,000.00,018.9,018.4,000.0,027.2,020.0,10.8,0000.0,0002.53,0001.79,0001.57
2023-11-26 12:12:00,SystemResetWarning,0831.3,5.00,000.00,018.9,018.2,000.0,027.3,020.0,10.8,0000.0,0002.56,0001.80,0001.57
2023-11-26 12:13:00,SystemResetWarning,0831.3,4.99,000.00,018.8,018.1,000.0,027.3,020.0,10.8,0000.0,0002.60,0001.81,0001.57
2023-11-26 12:14:00,SystemResetWarning,0831.3,4.99,000.00,018.8,017.9,000.0,027.3,020.0,10.9,0000.0,0003.04,0001.80,0001.55
2023-11-26 12:15:00,SystemResetWarning,0831.4,5.00,000.00,018.8,017.8,000.0,027.3,020.0,10.8,0000.0,0003.35,0001.84,0001.56
2023-11-26 12:16:00,SystemResetWarning,0831.3,5.01,000.00,018.9,018.2,000.0,027.2,020.4,10.8,0000.0,0003.30,0001.87,0001.56
2023-11-26 12:17:00,SystemResetWarning,0831.3,5.01,000.00,019.0,018.9,000.0,027.2,020.8,10.7,0000.0,0003.26,0001.88,0001.57
2023-11-26 12:18:00,SystemResetWarning,0831.4,4.99,000.00,019.1,019.3,000.0,027.2,020.8,10.6,0000.0,0003.23,0001.86,0001.57
2023-11-26 12:19:00,SystemResetWarning,0831.4,4.99,000.00,019.0,019.1,000.0,027.2,020.2,10.7,0000.0,0003.19,0001.85,0001.58
2023-11-26 12:20:00,SystemResetWarning,0831.4,5.00,000.00,019.0,018.7,000.0,027.2,020.0,10.7,0000.0,0003.18,0001.85,0001.59
2023-11-26 12:21:00,SystemResetWarning,0831.4,5.01,000.00,018.9,018.5,000.0,027.3,020.0,10.7,0000.0,0003.19,0001.85,0001.57
2023-11-26 12:22:00,SystemResetWarning,0831.4,5.00,000.00,018.9,018.3,000.0,027.3,020.0,10.7,0000.0,0003.13,0001.82,0001.57
2023-11-26 12:23:00,SystemResetWarning,0831.4,5.00,000.00,018.9,018.1,000.0,027.3,020.0,10.7,0000.0,0003.06,0001.79,0001.56
2023-11-26 12:24:00,SystemResetWarning,0831.5,5.00,000.00,018.8,017.9,000.0,027.3,020.0,10.7,0000.0,0002.97,0001.75,0001.54
2023-11-26 12:25:00,SystemResetWarning,0831.4,4.99,000.00,018.8,017.8,000.0,027.3,020.0,10.7,0000.0,0002.53,0001.75,0001.54
2023-11-26 12:26:00,SystemResetWarning,0831.4,4.99,000.00,018.8,017.8,000.0,027.3,020.1,10.8,0000.0,0002.23,0001.71,0001.53
2023-11-26 12:27:00,SystemResetWarning,0831.5,5.01,000.00,018.9,018.4,000.0,027.2,020.6,10.8,0000.0,0002.18,0001.68,0001.51
2023-11-26 12:28:00,SystemResetWarning,0831.5,5.01,000.00,019.0,019.0,000.0,027.2,020.7,10.6,0000.0,0002.15,0001.67,0001.51
2023-11-26 12:29:00,SystemResetWarning,0831.5,4.99,000.00,019.0,018.9,000.0,027.2,020.1,10.6,0000.0,0002.12,0001.65,0001.50
2023-11-26 12:30:00,SystemResetWarning,0831.5,5.01,000.00,018.9,018.6,000.0,027.2,020.0,10.7,0000.0,0002.11,0001.64,0001.48
2023-11-26 12:31:00,SystemResetWarning,0831.5,5.01,000.00,018.9,018.3,000.0,027.3,020.0,10.6,0000.0,0002.08,0001.62,0001.47
2023-11-26 12:32:00,SystemResetWarning,0831.5,4.99,000.00,018.8,018.1,000.0,027.3,020.0,10.7,0000.0,0002.05,0001.62,0001.49
2023-11-26 12:33:00,SystemResetWarning,0831.5,4.99,000.00,018.8,018.0,000.0,027.3,020.0,10.7,0000.0,0002.16,0001.66,0001.50
2023-11-26 12:34:00,SystemResetWarning,0831.5,4.99,000.00,018.8,017.8,000.0,027.3,020.0,10.8,0000.0,0002.25,0001.69,0001.51
2023-11-26 12:35:00,SystemResetWarning,0831.5,5.00,000.00,018.8,017.7,000.0,027.3,020.1,10.9,0000.0,0002.38,0001.75,0001.52
2023-11-26 12:36:00,SystemResetWarning,0831.5,5.02,000.00,018.9,018.3,000.0,027.2,020.5,10.9,0000.0,0002.37,0001.76,0001.52
2023-11-26 12:37:00,SystemResetWarning,0831.5,4.98,000.00,019.0,019.0,000.0,027.2,020.7,10.8,0000.0,0002.30,0001.74,0001.51
2023-11-26 12:38:00,SystemResetWarning,0831.5,4.99,000.00,019.0,018.8,000.0,027.2,020.2,10.8,0000.0,0002.26,0001.73,0001.50
2023-11-26 12:39:00,SystemResetWarning,0831.5,5.01,000.00,018.9,018.6,000.0,027.2,020.0,10.8,0000.0,0002.38,0001.76,0001.49
2023-11-26 12:40:00,SystemResetWarning,0831.5,5.00,000.00,018.9,018.3,000.0,027.3,020.0,10.8,0000.0,0002.51,0001.80,0001.49
2023-11-26 12:41:00,SystemResetWarning,0831.5,5.00,000.00,018.8,018.1,000.0,027.3,020.0,10.9,0000.0,0002.52,0001.81,0001.48
2023-11-26 12:42:00,SystemResetWarning,0831.5,5.00,000.00,018.8,018.0,000.0,027.3,020.0,10.9,0000.0,0002.53,0001.81,0001.47
2023-11-26 12:43:00,SystemResetWarning,0831.5,5.00,000.00,018.8,017.8,000.0,027.3,020.0,10.9,0000.0,0002.55,0001.81,0001.46
2023-11-26 12:44:00,SystemResetWarning,0831.5,5.00,000.00,018.8,018.0,000.0,027.2,020.3,10.9,0000.0,0002.44,0001.77,0001.44
2023-11-26 12:45:00,SystemResetWarning,0831.5,5.01,000.00,019.0,018.8,000.0,027.2,020.7,10.7,0000.0,0002.42,0001.75,0001.44
2023-11-26 12:46:00,SystemResetWarning,0831.5,5.00,000.00,019.0,019.0,000.0,027.2,020.5,10.6,0000.0,0002.37,0001.74,0001.44
2023-11-26 12:47:00,SystemResetWarning,0831.5,4.99,000.00,018.9,018.7,000.0,027.2,020.0,10.7,0000.0,0002.36,0001.73,0001.44
2023-11-26 12:48:00,SystemResetWarning,0831.5,5.00,000.00,018.9,018.5,000.0,027.2,020.0,10.6,0000.0,0002.47,0001.77,0001.46
2023-11-26 12:49:00,SystemResetWarning,0831.5,5.01,000.00,018.8,018.3,000.0,027.2,020.0,10.6,0000.0,0002.47,0001.79,0001.48
2023-11-26 12:50:00,SystemResetWarning,0831.5,5.00,000.00,018.8,018.1,000.0,027.3,020.0,10.6,0000.0,0002.31,0001.75,0001.49
2023-11-26 12:51:00,SystemResetWarning,0831.5,5.00,000.00,018.8,017.9,000.0,027.3,020.0,10.6,0000.0,0002.22,0001.72,0001.49
2023-11-26 12:52:00,SystemResetWarning,0831.5,5.00,000.00,018.8,017.8,000.0,027.3,020.0,10.6,0000.0,0002.25,0001.74,0001.49
2023-11-26 12:53:00,SystemResetWarning,0831.5,5.01,000.00,018.8,018.0,000.0,027.2,020.3,10.6,0000.0,0002.27,0001.75,0001.50
2023-11-26 12:54:00,SystemResetWarning,0831.5,5.00,000.00,018.9,018.7,000.0,027.2,020.7,10.6,0000.0,0002.29,0001.75,0001.50
2023-11-26 12:55:00,SystemResetWarning,0831.5,4.99,000.00,019.0,019.1,000.0,027.2,020.6,10.5,0000.0,0002.42,0001.78,0001.50
2023-11-26 12:56:00,SystemResetWarning,0831.5,4.98,000.00,019.0,018.9,000.0,027.2,020.1,10.5,0000.0,0002.38,0001.77,0001.50
2023-11-26 12:57:00,SystemResetWarning,0831.5,5.01,000.00,018.9,018.6,000.0,027.2,020.0,10.5,0000.0,0002.33,0001.75,0001.49
2023-11-26 12:58:00,SystemResetWarning,0831.5,5.01,000.00,018.9,018.4,000.0,027.2,020.0,10.5,0000.0,0002.26,0001.72,0001.47
2023-11-26 12:59:00,SystemResetWarning,0831.5,5.00,000.00,018.8,018.2,000.0,027.3,020.0,10.5,0000.0,0002.14,0001.67,0001.46
